Terug naar catalogus

NOAA 16 DEB

ActiefSSO
NORAD 41071·DEBRIS·🇺🇸 United States

Gelanceerd Sep 21, 2000 vanaf Vandenberg Space Force Base

Loading…

Volgende Passages (komende 24 uur)

TLE

VersSource: Space-Track

Epoch: Sep 14, 2026, 13:06 UTC

1 41071U 00055AE  26257.54583612  .00002447  00000-0  95798-3 0  9997
2 41071  98.8241   7.1115 0011059  99.2008 261.0425 14.30394186558654

Volg NOAA 16 DEB in realtime met AllMySat

Download on the App Store